Back to catalog

STARLINK-6287

AliveCommunicationsVLEO
NORAD 56404·PAYLOAD·🇺🇸 United States

Launched May 4, 2023 from Cape Canaveral Space Force Station

Loading…

Next Passes (next 24 hours)

TLE

FreshSource: CelesTrak SupGP

Epoch: Sep 14, 2026, 14:10 UTC

1 56404C 23061AG  26257.59076389 -.00049728  00000+0 -18014-2 0  2574
2 56404  43.0000 200.4249 0001000 243.6388  62.5294 15.27599682    17

Track STARLINK-6287 in real time with AllMySat

Download on the App Store